CAPE
2 14 5 313 307 358 198 162 0 0 75 368 286 239 157 116 168 147 202 163 152 171 192 176 159 161 185 277 159 156 219 180 148 328 275 265 327 276 276 339 324 306 144 67
0 0 21 212 234 194 308 296 262 269 185 310 227 156 118 16 26 52 30 35 209 203 181 178 228 281 280 169 163 287 182 227 284 355 263 414 425 438 490 461 561 433 291 219
0 0 30 42 136 99 97 280 393 186 379 419 202 88 12 0 1 1 2 24 40 37 119 227 165 81 328 421 349 259 381 367 323 349 298 213 178 315 197 467 470 381 451 432
0 0 0 16 131 291 313 257 258 289 497 288 68 3 2 2 0 0 0 1 1 1 1 6 17 74 147 220 288 259 305 240 194 278 230 217 176 78 107 203 173 330 387 133
0 0 0 2 157 321 246 264 485 359 340 192 63 27 6 3 2 1 0 0 1 2 2 2 0 0 30 127 169 149 133 80 89 74 57 58 40 79 98 159 101 74 67 99
2 10 0 3 75 120 191 93 466 435 273 187 166 184 79 3 1 1 1 1 2 2 3 2 1 1 47 83 126 128 166 42 8 3 26 21 11 40 21 112 99 44 6 4
15 19 24 0 82 113 63 78 596 485 343 336 138 155 0 1 0 0 1 0 1 1 1 2 2 50 73 56 33 28 75 48 13 48 63 57 38 17 24 22 0 0 0 0
7 12 0 116 131 231 165 143 500 352 130 69 2 0 1 0 0 1 0 0 0 0 0 1 2 1 1 0 0 0 6 3 8 31 22 20 5 0 0 0 0 0 0 0
30 63 12 141 160 85 61 267 520 202 12 0 0 0 0 0 0 0 1 0 0 0 0 0 4 4 0 3 2 2 1 0 0 0 1 1 0 0 0 1 0 0 0 0
118 79 9 54 93 139 390 650 454 133 20 0 0 0 2 0 0 0 0 0 0 0 0 0 0 2 4 4 2 2 1 0 1 0 0 1 0 0 1 3 4 4 0 0
208 166 83 193 181 438 589 455 234 126 71 0 0 0 1 0 0 0 0 0 0 0 0 0 0 0 0 0 0 0 2 1 1 1 1 1 1 1 0 1 0 1 2 0
177 271 292 215 258 629 504 220 169 52 0 0 0 0 0 0 0 0 0 0 0 0 0 0 0 0 0 0 0 0 0 0 0 0 0 0 0 0 0 2 0 0 0 0
374 241 262 252 407 734 412 222 74 0 0 0 0 0 0 0 0 0 0 0 0 0 0 0 0 0 0 0 0 0 0 0 0 0 0 0 0 0 0 0 0 0 0 0
138 330 467 610 791 492 155 63 0 0 0 0 0 0 0 0 0 0 0 0 0 0 0 0 0 0 0 0 0 0 0 0 0 0 0 0 0 0 0 0 0 0 0 0
124 280 244 896 865 305 71 0 0 0 0 0 0 0 0 0 0 0 0 0 0 0 0 0 0 0 0 0 0 0 0 0 0 0 0 0 0 0 0 0 0 0 0 0
10 24 141 671 597 135 16 0 0 0 0 0 0 0 0 0 0 0 0 0 0 0 0 0 0 0 0 0 0 0 0 0 0 0 0 0 0 0 0 0 0 0 0 0
0 12 326 812 579 205 0 0 0 0 0 0 0 0 0 0 0 0 0 0 0 0 0 0 0 0 0 0 0 0 0 0 0 0 0 0 0 0 0 0 0 0 0 0
1 97 409 660 605 380 130 3 0 0 0 0 0 0 0 0 0 0 0 0 0 0 0 0 0 0 0 0 0 0 0 0 0 0 0 0 0 0 0 0 0 0 0 0
0 16 340 599 540 343 254 71 5 3 0 0 0 0 0 0 0 0 0 0 0 5 25 14 2 0 18 13 1 0 0 0 0 0 0 0 0 0 0 0 0 0 0 0
0 1 1 128 370 378 326 299 86 65 30 2 2 0 0 0 0 0 0 10 28 45 32 33 24 45 69 66 20 42 25 10 0 0 0 0 0 0 0 0 0 0 0 0
0 0 0 0 0 61 191 261 173 63 43 10 7 5 0 1 7 13 15 30 51 2 0 0 4 20 22 33 33 67 58 40 24 6 1 0 0 0 0 0 0 0 0 0
0 0 0 0 0 0 0 15 45 79 67 15 5 7 0 7 20 17 21 44 0 0 0 0 0 0 7 1 39 54 62 60 55 42 32 34 32 5 2 5 11 10 1 0
0 0 0 0 0 0 0 0 0 0 0 0 0 0 0 0 0 0 0 0 0 0 0 0 0 0 0 0 0 0 0 3 9 28 41 44 40 42 35 10 1 1 0 0
0 0 0 0 0 0 0 0 0 0 0 0 0 0 0 0 0 0 0 0 0 0 0 0 0 0 0 0 0 0 0 0 0 0 0 0 1 0 1 4 0 0 0 0
0 0 0 0 0 0 0 0 0 0 0 0 0 0 0 0 0 0 0 0 0 0 0 0 0 0 0 0 0 0 0 0 0 0 0 0 0 0 0 0 0 0 0 0
0 0 0 0 0 0 0 0 0 0 0 0 0 0 0 0 0 0 0 0 0 0 0 0 0 0 0 0 0 0 0 0 0 0 0 0 0 0 0 0 0 0 0 0
0 0 0 0 0 0 0 0 0 0 0 0 0 0 0 0 0 0 0 0 0 0 0 0 0 0 0 0 0 0 0 0 0 0 0 0 0 0 0 0 0 0 0 0
CIN
-20 -91 -89 -56 -33 -43 -63 -79 -0 -46 -76 -136 -193 -212 -274 -287 -221 -223 -138 -115 -105 -103 -131 -145 -153 -153 -168 -153 -191 -163 -149 -150 -130 -109 -109 -133 -100 -75 -84 -53 -41 -43 -53 -69
-0 -0 -61 -39 -46 -59 -65 -76 -98 -91 -114 -197 -230 -259 -262 -417 -360 -310 -299 -273 -149 -202 -178 -175 -93 -103 -109 -156 -170 -129 -133 -129 -110 -84 -100 -73 -67 -52 -49 -35 -24 -28 -29 -37
-0 -0 -39 -30 -33 -34 -58 -100 -65 -64 -101 -151 -216 -288 -267 -18 -0 -0 -325 -399 -355 -368 -236 -87 -124 -110 -77 -86 -114 -109 -93 -91 -95 -45 -72 -81 -48 -15 -32 -26 -15 -16 -23 -24
-0 -0 -0 -66 -197 -117 -50 -82 -138 -177 -116 -165 -263 -71 -0 -0 -0 -0 -34 -0 -0 -0 -12 -327 -272 -133 -64 -77 -69 -111 -110 -84 -67 -40 -43 -61 -43 -23 -13 -20 -9 -13 -35 -63
-0 -0 -0 -14 -81 -74 -49 -23 -104 -143 -149 -186 -252 -289 -44 -0 -0 -0 -0 -0 -0 -0 -0 -0 -0 -0 -178 -152 -109 -128 -106 -100 -103 -76 -75 -78 -72 -49 -1 -1 -24 -54 -72 -45
-11 -24 -0 -55 -161 -183 -124 -10 -83 -102 -120 -173 -194 -118 -235 -0 -0 -0 -0 -0 -0 -0 -0 -0 -0 -0 -165 -97 -48 -71 -68 -69 -145 -131 -69 -26 -89 -95 -1 -21 -1 -31 -45 -66
-79 -50 -58 -0 -200 -182 -19 -12 -74 -95 -110 -126 -169 -172 -0 -0 -0 -0 -0 -0 -0 -0 -0 -0 -0 -242 -165 -129 -123 -117 -87 -93 -103 -30 -15 -26 -6 -42 -39 -65 -0 -0 -0 -0
-46 -61 -11 -188 -159 -54 -117 -200 -118 -132 -239 -250 -86 -0 -0 -0 -0 -0 -0 -0 -0 -0 -0 -0 -0 -0 -0 -0 -0 -0 -112 -80 -39 -96 -17 -11 -17 -2 -0 -0 -0 -0 -0 -0
-66 -46 -184 -184 -135 -190 -219 -134 -96 -143 -273 -0 -0 -0 -0 -0 -0 -0 -0 -0 -0 -0 -0 -0 -0 -0 -0 -0 -0 -0 -0 -0 -0 -0 -0 -0 -0 -0 -0 -0 -0 -0 -0 -0
-64 -93 -18 -162 -179 -189 -129 -86 -115 -172 -240 -0 -0 -0 -0 -1 -0 -0 -0 -0 -0 -0 -0 -0 -0 -0 -0 -0 -0 -0 -0 -0 -0 -0 -0 -0 -0 -0 -0 -0 -0 -0 -0 -0
-48 -64 -107 -120 -132 -107 -96 -123 -164 -202 -236 -0 -0 -0 -0 -0 -0 -0 -0 -0 -0 -0 -0 -0 -0 -0 -0 -0 -0 -0 -0 -0 -0 -0 -0 -0 -0 -0 -0 -0 -0 -0 -0 -0
-13 -33 -33 -47 -114 -96 -80 -115 -158 -211 -0 -0 -0 -0 -0 -0 -0 -0 -0 -0 -0 -0 -0 -0 -0 -0 -0 -0 -0 -0 -0 -0 -0 -0 -0 -0 -0 -0 -0 -0 -0 -0 -0 -0
-29 -113 -115 -123 -117 -90 -72 -118 -195 -0 -0 -0 -0 -0 -0 -0 -0 -0 -0 -0 -0 -0 -0 -0 -0 -0 -0 -0 -0 -0 -0 -0 -0 -0 -0 -0 -0 -0 -0 -0 -0 -0 -0 -0
-174 -128 -92 -101 -69 -105 -128 -188 -0 -0 -0 -0 -0 -0 -0 -0 -0 -0 -0 -0 -0 -0 -0 -0 -0 -0 -0 -0 -0 -0 -0 -0 -0 -0 -0 -0 -0 -0 -0 -0 -0 -0 -0 -0
-116 -128 -134 -66 -64 -128 -173 -0 -0 -0 -0 -0 -0 -0 -0 -0 -0 -0 -0 -0 -0 -0 -0 -0 -0 -0 -0 -0 -0 -0 -0 -0 -0 -0 -0 -0 -0 -0 -0 -0 -0 -0 -0 -0
-130 -161 -126 -68 -72 -107 -155 -0 -0 -0 -0 -0 -0 -0 -0 -0 -0 -0 -0 -0 -0 -0 -0 -0 -0 -0 -0 -0 -0 -0 -0 -0 -0 -0 -0 -0 -0 -0 -0 -0 -0 -0 -0 -0
-11 -136 -88 -44 -51 -64 -4 -0 -0 -0 -0 -0 -0 -0 -0 -0 -0 -0 -0 -0 -0 -0 -0 -0 -0 -0 -0 -0 -0 -0 -0 -0 -0 -0 -0 -0 -0 -0 -0 -0 -0 -0 -0 -0
-2 -83 -65 -47 -39 -34 -48 -42 -0 -0 -0 -0 -0 -0 -0 -0 -0 -0 -0 -0 -0 -0 -0 -0 -0 -0 -0 -0 -0 -0 -0 -0 -0 -0 -0 -0 -0 -0 -0 -0 -0 -0 -0 -0
-12 -109 -52 -30 -24 -26 -36 -97 -193 -77 -0 -0 -0 -0 -0 -0 -0 -0 -0 -0 -0 -28 -31 -47 -19 -0 -45 -51 -18 -0 -0 -0 -0 -0 -0 -0 -0 -0 -0 -0 -0 -0 -0 -0
-0 -31 -86 -59 -40 -34 -37 -41 -93 -127 -181 -88 -87 -0 -0 -0 -0 -0 -0 -45 -31 -25 -58 -57 -51 -34 -23 -27 -65 -25 -25 -24 -0 -0 -0 -0 -0 -0 -0 -0 -0 -0 -0 -0
-0 -0 -0 -0 -0 -90 -58 -43 -51 -112 -157 -102 -91 -63 -0 -7 -71 -67 -47 -21 -19 -18 -0 -0 -20 -38 -46 -41 -47 -12 -13 -17 -34 -59 -7 -0 -0 -0 -0 -0 -0 -4 -0 -0
-0 -0 -0 -0 -0 -0 -0 -88 -135 -99 -120 -103 -41 -69 -0 -44 -45 -48 -45 -58 -0 -0 -0 -0 -0 -0 -23 -3 -19 -5 -3 -5 -8 -8 -12 -10 -7 -40 -16 -29 -29 -15 -4 -0
-0 -0 -0 -0 -0 -0 -0 -0 -0 -0 -0 -0 -0 -0 -0 -0 -0 -0 -0 -0 -0 -0 -0 -0 -0 -0 -0 -0 -0 -0 -0 -7 -1 -2 -0 -0 -0 -1 -1 -0 -4 -6 -5 -0
-0 -0 -0 -0 -0 -0 -0 -0 -0 -0 -0 -0 -0 -0 -0 -0 -0 -0 -0 -0 -0 -0 -0 -0 -0 -0 -0 -0 -0 -0 -0 -0 -0 -0 -0 -0 -0 -0 -1 -2 -1 -0 -0 -0
-0 -0 -0 -0 -0 -0 -0 -0 -0 -0 -0 -0 -0 -0 -0 -0 -0 -0 -0 -0 -0 -0 -0 -0 -0 -0 -0 -0 -0 -0 -0 -0 -0 -0 -1 -0 -0 -0 -0 -0 -0 -0 -0 -0
-0 -0 -0 -0 -0 -0 -0 -0 -0 -0 -0 -0 -0 -0 -0 -0 -0 -0 -0 -0 -0 -0 -0 -0 -0 -0 -0 -0 -0 -0 -0 -0 -0 -0 -0 -0 -0 -0 -0 -0 -0 -0 -0 -0
-0 -0 -0 -0 -0 -0 -0 -0 -0 -0 -0 -0 -0 -0 -0 -0 -0 -0 -0 -0 -0 -0 -0 -0 -0 -0 -0 -0 -0 -0 -0 -0 -0 -0 -0 -0 -0 -0 -0 -0 -0 -0 -0 -0
Wind_Speed
21 22 22 21 22 21 25 28 31 29 26 24 21 19 18 17 15 13 12 11 9 9 19 23 26 30 33 32 29 26 28 28 28 26 23 22 18 16 17 15 16 15 15 15
22 24 24 22 21 21 23 23 22 23 25 19 18 17 16 15 14 13 13 13 13 16 19 26 23 28 32 33 31 29 29 33 31 29 28 24 23 19 19 19 17 19 19 18
23 24 27 35 28 26 25 24 24 27 23 19 19 18 18 15 14 13 14 15 14 14 18 22 25 30 32 31 29 30 31 33 33 29 31 28 28 21 20 20 17 18 20 16
23 24 31 26 25 27 27 25 25 24 19 17 17 16 16 16 16 16 17 16 15 15 19 20 20 22 24 22 22 24 25 25 27 29 32 29 30 35 30 33 15 15 17 16
22 26 30 28 25 24 27 28 19 18 16 14 14 17 17 15 15 16 17 18 18 19 19 19 17 21 20 16 17 22 23 28 29 32 35 33 38 34 36 31 24 18 18 20
18 24 29 24 21 19 20 29 14 14 14 15 15 20 18 15 15 16 17 18 18 19 19 18 18 19 17 19 16 17 18 19 21 26 31 34 30 31 20 22 16 16 17 18
19 24 26 22 17 16 30 25 17 15 14 15 17 18 12 13 15 15 16 18 18 18 18 18 18 15 13 13 13 16 18 20 23 21 24 21 18 14 16 18 15 17 19 19
18 22 28 16 16 22 21 23 17 17 16 16 13 10 11 13 14 15 15 16 16 16 17 18 17 15 15 15 17 17 16 17 18 17 19 14 10 12 13 16 16 16 14 15
16 20 19 17 21 20 21 19 15 14 15 11 13 14 14 15 16 16 16 15 15 15 16 17 17 16 16 16 15 13 13 15 16 17 17 17 14 14 12 14 17 15 12 11
19 19 22 23 23 22 20 16 12 11 13 12 15 14 15 16 16 15 15 15 15 15 16 16 17 16 16 16 15 14 15 16 16 16 15 16 15 15 15 13 11 10 12 10
18 23 22 21 19 18 16 13 10 10 12 13 13 14 13 14 14 13 12 13 13 14 14 15 16 16 16 16 16 15 15 15 15 15 14 15 15 16 14 14 14 13 15 11
15 17 19 19 10 9 9 11 11 12 11 12 13 12 11 11 11 11 12 12 12 12 13 14 15 15 17 17 16 15 15 15 15 15 15 15 14 14 16 16 15 15 14 12
17 17 16 16 7 5 8 7 9 11 9 10 11 10 8 8 9 9 10 10 11 12 13 14 14 15 16 17 16 15 14 14 15 14 14 15 15 16 16 17 16 15 15 14
12 11 14 8 9 3 6 6 6 8 8 7 8 8 7 7 8 8 9 9 11 12 12 12 13 14 15 15 15 15 15 14 14 15 15 16 16 16 16 16 16 16 17 17
3 2 16 10 1 4 5 4 6 7 7 6 6 7 7 5 5 6 8 9 11 12 12 12 13 14 14 14 14 15 14 14 15 15 16 16 17 17 17 17 17 17 17 18
10 7 6 4 5 3 5 4 5 5 4 4 6 5 4 5 5 6 7 9 11 12 13 13 13 14 14 15 15 15 15 15 15 15 16 17 17 17 18 18 18 18 18 18
15 17 16 17 11 5 1 4 5 7 8 10 6 5 6 5 5 6 7 8 10 11 13 13 13 13 13 13 14 14 15 15 15 16 15 16 16 16 16 16 16 17 18 18
17 21 23 22 22 21 10 2 2 7 13 12 10 9 8 7 7 7 6 7 9 11 11 11 11 11 12 12 13 14 14 15 15 15 15 15 15 16 17 18 18 18 18 18
20 22 23 23 23 22 20 18 18 19 14 12 10 11 9 9 8 6 6 7 8 9 9 9 9 10 12 11 11 15 15 15 15 14 14 14 14 15 16 17 18 19 19 20
21 23 24 24 24 25 23 24 22 15 10 11 12 10 13 16 11 6 5 5 6 8 12 9 8 9 10 13 9 13 13 14 13 13 13 13 14 15 16 17 19 19 20 20
19 21 22 22 23 24 25 26 25 25 21 17 16 17 15 11 6 3 3 4 10 11 12 12 12 12 12 12 10 12 14 14 14 14 15 16 17 17 16 17 18 19 19 19
14 18 19 19 20 22 22 22 21 20 16 15 16 14 9 8 5 4 2 6 11 12 14 15 16 15 14 13 14 13 13 14 14 15 15 16 16 16 17 18 20 21 22 22
7 11 12 13 16 19 16 17 17 14 12 12 9 6 9 9 6 4 4 4 9 10 13 15 14 14 15 16 16 15 15 15 15 15 15 15 15 15 17 18 19 20 21 21
3 2 4 2 5 2 5 7 5 4 4 4 4 5 4 4 3 5 7 5 4 6 10 12 13 14 15 16 16 16 15 15 14 14 15 15 14 14 14 15 16 18 21 22
4 4 4 4 3 2 1 2 3 4 2 1 1 0 1 0 1 4 5 5 3 5 9 10 11 14 14 14 15 16 15 15 14 14 13 13 13 13 13 15 17 19 21 22
4 5 7 6 7 7 7 6 5 5 6 5 4 4 3 5 5 8 7 6 4 4 6 8 10 11 10 11 13 15 15 15 15 14 14 13 13 13 14 15 17 19 22 24
8 8 9 10 11 11 10 10 10 9 8 8 9 10 9 9 9 6 5 5 6 6 6 6 7 6 7 8 10 11 13 14 13 13 13 13 12 13 14 15 17 19 21 24
Wind_Direction
281 275 278 273 270 274 266 264 257 260 264 272 285 285 290 295 310 327 338 297 264 238 248 254 256 254 254 258 262 265 265 268 270 276 279 281 286 287 288 287 288 292 297 302
287 278 273 272 274 275 274 277 280 278 269 286 292 300 311 313 310 323 313 315 280 259 266 263 267 264 261 262 264 265 268 267 272 277 278 280 281 283 285 286 285 287 289 291
290 283 272 260 265 272 274 275 275 271 277 276 282 284 287 305 309 311 302 295 306 294 278 263 270 263 263 267 264 264 268 270 270 276 277 281 280 281 280 282 283 284 285 289
294 289 268 277 281 272 271 275 277 275 273 276 280 284 287 291 296 302 291 305 316 316 286 284 294 284 279 278 271 269 274 277 276 279 281 284 282 278 282 277 273 281 284 287
297 286 281 281 281 278 270 267 279 272 273 275 280 280 282 292 300 304 301 302 299 306 310 308 317 286 286 299 289 276 281 282 284 283 283 285 279 286 281 280 279 278 286 284
307 291 280 287 289 289 284 259 271 276 272 271 277 271 276 293 300 303 304 305 303 306 314 320 317 301 301 303 309 294 293 297 298 294 288 281 286 282 295 273 280 284 287 294
304 293 290 296 299 294 259 269 271 272 275 274 278 282 297 298 302 309 310 314 320 323 319 319 320 339 329 328 337 314 304 301 304 312 310 317 302 304 291 289 292 285 284 292
311 299 287 309 297 277 286 292 277 275 282 282 286 297 307 304 304 310 317 322 330 332 330 332 334 339 326 324 324 328 333 320 323 346 347 341 360 330 318 308 301 299 308 300
312 301 308 302 291 289 289 295 280 284 282 303 287 287 292 298 298 303 309 319 332 337 341 337 337 338 336 332 331 341 350 345 346 352 352 1 9 3 6 331 303 303 317 316
312 307 299 289 284 284 286 290 285 293 294 293 286 296 298 293 295 300 307 314 324 328 335 339 338 343 343 339 339 339 333 337 338 340 344 348 348 350 355 350 25 346 330 338
311 298 302 296 290 289 286 284 291 296 303 293 293 295 306 300 304 312 321 331 334 335 335 337 329 340 336 341 348 348 345 350 347 346 354 356 353 342 342 338 328 330 317 336
315 309 303 305 304 305 298 288 289 289 295 297 289 296 307 311 316 317 319 325 333 342 344 339 340 334 340 340 348 348 345 348 354 357 354 357 1 356 348 346 348 342 338 335
313 310 301 304 328 321 299 318 304 288 303 291 287 290 314 334 332 338 339 342 340 339 340 339 340 345 343 346 350 355 356 354 349 352 351 344 344 341 336 343 347 348 346 342
311 318 300 301 293 319 311 338 327 304 302 307 294 299 317 345 349 353 0 10 6 357 350 349 354 350 339 338 340 343 347 348 347 345 344 340 339 340 344 344 339 337 335 335
124 303 293 288 62 306 303 343 329 307 304 306 313 296 308 333 355 6 6 3 357 350 344 339 339 339 336 341 341 343 346 347 347 349 345 344 343 339 336 337 336 333 332 330
122 108 327 130 141 278 283 322 318 316 359 1 311 333 346 10 10 0 356 354 345 346 348 347 346 349 350 349 347 351 353 354 352 349 347 344 345 343 341 339 335 333 331 331
119 141 134 134 133 129 135 87 78 85 87 91 63 21 17 19 356 355 1 6 3 357 359 358 359 6 7 7 4 1 358 354 349 349 350 353 354 355 356 356 352 347 344 341
138 144 147 143 145 143 126 304 72 101 121 113 96 87 75 71 73 69 55 33 12 5 6 3 1 2 358 353 346 344 346 348 349 349 350 351 351 352 352 351 352 351 350 348
139 138 142 146 147 149 146 141 141 146 126 121 116 127 117 110 100 69 37 33 28 23 28 21 14 4 351 357 350 339 339 340 341 342 344 347 348 349 349 348 346 344 343 342
145 151 154 152 159 162 158 163 158 139 119 129 134 131 147 155 132 95 66 71 58 32 3 12 3 351 345 339 347 337 339 342 341 339 339 337 336 337 339 338 337 337 337 337
139 144 149 152 160 169 176 174 174 180 171 157 159 167 168 155 132 94 26 9 348 355 358 1 0 350 342 338 338 329 329 333 334 333 331 329 328 329 332 335 336 336 334 333
127 138 145 145 151 159 161 161 165 170 164 162 166 163 148 142 130 131 99 354 344 349 347 347 348 347 348 347 341 336 333 333 332 331 331 330 330 331 331 332 333 333 333 331
108 129 132 135 143 160 153 157 157 152 149 149 141 121 137 132 114 57 49 20 346 351 350 350 353 356 353 348 345 343 341 337 334 332 332 333 334 336 337 337 338 339 338 336
5 79 109 10 340 15 122 132 117 112 114 125 120 124 121 109 42 352 359 10 8 9 0 5 2 0 359 357 357 356 354 351 349 346 343 342 347 350 354 355 353 350 346 344
5 338 330 331 340 359 56 349 344 336 349 345 342 22 183 322 330 335 336 336 341 343 345 1 359 359 1 13 13 14 15 10 4 1 3 5 10 18 20 12 5 359 355 353
358 342 323 326 324 323 320 320 314 317 316 306 300 293 284 294 303 314 314 314 324 335 331 349 352 357 10 23 24 25 21 16 17 21 26 30 34 32 25 17 9 3 359 356
311 316 314 313 314 315 314 311 306 298 289 282 285 293 287 284 284 283 280 288 302 310 321 338 348 355 10 24 29 22 17 19 22 24 26 27 27 21 17 11 7 4 1 357